Wind_Speed
5 3 4 5 7 9 10 12 6 3 6 10 5 5 7 8 5 5 6 6 9 5 4 7 5 3 3 3 4 4 1 2 1 0 3 3 3 0 5 9 8 6 8 11 15 17 20 24 24 23 25 24 24 23 23 26 25 23 26 26 24 23 23 20 18 22 21 17 16 16 15 16 18 18 17 18 16 14 14 14 14 12 11 11 10 10
5 4 6 8 11 11 11 9 2 8 1 7 4 4 5 7 6 6 7 7 8 4 4 7 7 5 5 5 5 5 3 4 3 3 3 4 4 2 4 9 9 6 7 9 11 16 20 24 23 23 25 23 24 24 24 25 25 26 26 25 24 24 23 20 20 21 18 16 17 16 14 14 16 16 16 17 17 15 14 13 13 12 11 12 11 11
5 5 9 11 11 10 7 2 6 8 4 1 1 2 5 6 6 4 6 8 7 3 3 6 7 4 2 3 5 4 5 5 4 5 4 4 5 3 3 6 9 7 7 7 9 13 18 24 23 22 24 23 24 25 24 24 25 27 26 24 25 25 23 20 19 19 16 17 17 16 17 15 14 15 15 17 17 15 14 14 13 11 11 12 12 11
5 5 9 8 5 3 4 6 5 5 4 3 3 3 6 8 7 3 4 8 6 3 5 6 4 3 1 1 3 4 4 3 4 5 4 4 5 5 4 5 8 10 9 8 9 10 15 22 23 22 23 23 24 23 23 24 24 26 26 25 25 24 23 20 19 19 16 16 17 16 17 16 14 15 16 17 16 15 15 15 13 11 10 11 11 11
3 7 9 3 5 5 6 7 4 3 4 3 4 2 7 11 9 6 7 8 4 0 5 7 4 2 2 1 3 4 3 4 3 5 6 5 5 5 5 5 7 11 11 10 10 10 13 19 21 22 23 24 24 22 24 25 24 25 26 25 25 23 22 19 18 19 16 14 18 18 16 15 15 16 17 18 17 16 15 15 14 12 11 11 11 11
4 6 4 2 3 4 2 2 2 2 3 4 6 7 9 11 9 10 11 8 3 2 3 4 3 3 3 2 5 4 4 6 4 6 8 7 6 5 4 5 6 9 10 10 11 10 12 18 21 23 23 24 24 22 24 26 24 25 26 25 25 23 23 20 17 18 17 15 19 20 17 17 17 17 19 20 19 18 16 14 14 12 13 13 11 11
2 4 5 4 4 3 1 2 2 3 3 4 5 6 4 10 15 14 14 8 3 2 4 3 4 1 3 4 7 5 6 8 6 7 9 8 7 6 5 5 6 9 9 9 9 8 10 17 20 22 24 24 24 23 25 25 24 26 26 25 25 23 23 22 18 18 18 17 19 19 17 19 20 19 20 20 19 19 17 14 14 13 13 14 12 11
3 4 2 3 3 0 3 3 5 5 3 5 6 8 6 7 13 14 13 6 4 4 1 3 3 2 2 6 7 7 6 8 8 9 9 8 8 8 7 6 7 10 10 9 10 8 9 15 19 22 24 25 24 23 25 25 25 28 27 26 25 23 24 23 20 19 19 18 17 17 17 18 19 18 18 19 18 18 17 16 16 15 14 13 13 13
5 4 2 2 3 4 4 6 6 5 4 5 6 7 6 1 3 6 7 2 3 6 1 3 3 2 2 3 3 7 6 8 10 11 10 10 10 9 9 9 8 11 12 11 11 9 9 14 20 24 24 25 26 25 25 25 26 30 29 26 26 24 24 24 21 20 19 19 18 16 16 16 17 16 16 17 17 17 17 16 16 16 15 14 15 13
3 1 1 2 1 3 5 6 6 3 2 2 5 6 5 4 3 1 4 2 3 4 2 5 5 2 2 2 3 5 6 9 10 10 10 10 10 9 9 10 8 9 12 11 11 11 13 15 18 25 26 25 27 27 26 25 27 30 29 27 26 24 24 25 23 22 20 20 19 16 15 16 16 15 16 17 17 17 17 17 16 17 16 15 14 13
4 3 3 2 1 2 3 4 4 2 2 5 6 6 6 6 6 2 3 4 4 1 3 6 8 4 2 3 5 5 6 8 9 8 9 10 11 10 9 10 9 8 10 11 11 11 16 19 19 23 27 25 27 28 26 26 29 30 29 28 27 24 24 25 25 24 22 21 21 17 15 16 16 17 18 16 15 16 17 17 15 15 16 15 14 13
7 5 3 3 3 2 2 3 5 4 3 3 2 2 3 5 5 3 2 4 2 3 3 4 9 7 3 4 6 8 7 7 9 9 10 12 11 10 9 9 9 7 10 12 11 11 14 16 17 21 25 25 27 29 27 27 30 30 29 29 28 26 24 25 25 24 22 21 22 19 15 15 16 18 18 16 16 16 15 16 14 14 15 14 13 13
7 5 4 6 4 1 1 0 5 4 2 4 3 3 1 1 3 2 0 2 2 2 2 4 7 4 3 2 2 6 6 4 6 9 12 13 12 11 10 9 9 6 9 12 11 11 11 11 14 18 22 24 27 29 27 28 30 29 29 29 29 28 25 26 26 25 24 22 22 21 17 16 17 17 17 16 17 16 15 14 13 13 15 14 14 14
4 6 6 7 5 2 1 3 2 3 2 4 3 4 3 1 1 2 2 2 2 1 2 2 3 0 2 1 4 2 2 3 4 2 6 10 12 12 10 9 9 7 9 11 11 12 10 10 14 17 19 21 26 30 28 28 31 29 29 29 29 29 26 26 28 26 25 23 22 23 19 18 18 17 17 17 16 16 15 14 14 14 15 15 14 14
1 3 5 5 3 3 2 3 2 1 3 2 1 4 3 2 3 2 2 1 1 0 2 2 2 1 2 2 3 4 6 5 7 7 5 2 7 10 9 9 9 8 8 9 10 12 11 12 17 19 19 19 24 31 29 28 31 30 30 30 29 29 27 26 28 27 26 24 22 22 20 19 20 18 18 18 16 15 15 15 15 14 14 15 14 14
5 2 4 5 7 7 4 2 3 4 3 3 3 5 2 0 2 2 1 2 1 2 0 1 1 0 3 2 2 5 7 5 6 8 6 3 6 7 7 7 6 5 5 6 9 12 12 15 19 20 20 18 21 30 29 28 32 31 31 31 29 30 28 27 29 28 27 26 23 23 21 20 20 18 18 17 16 15 15 15 15 15 14 15 14 14
5 3 2 3 7 7 3 3 3 3 1 2 3 3 1 1 2 2 2 4 3 2 1 2 1 1 2 1 3 6 7 6 5 5 5 6 6 7 6 5 4 3 4 4 5 10 13 16 18 19 22 20 19 28 30 29 33 34 33 32 29 29 28 26 28 28 27 26 24 23 22 21 21 20 18 18 17 16 15 15 16 16 15 15 16 15
3 3 7 4 4 7 7 5 1 3 4 3 1 2 3 3 5 3 1 4 3 1 1 1 2 0 1 1 3 4 5 3 4 3 4 6 7 6 5 5 5 5 5 5 3 6 11 17 19 19 22 22 20 25 29 30 34 34 34 34 31 30 28 26 27 27 27 27 25 24 23 23 22 21 19 18 17 17 15 15 16 16 15 15 16 16
2 2 7 6 3 6 5 6 3 5 6 5 2 1 1 3 2 1 1 1 1 1 2 3 4 2 2 2 2 3 3 2 3 3 1 4 6 6 5 5 6 7 6 3 3 2 5 13 20 20 21 23 23 23 25 30 34 33 34 35 33 31 29 27 26 26 26 26 25 24 24 24 23 22 20 19 18 17 17 17 16 15 15 14 14 15
1 2 5 7 2 3 1 3 3 2 3 5 3 1 2 3 1 1 1 1 1 1 1 2 2 1 2 1 2 2 2 3 3 3 2 0 2 4 6 7 7 7 6 2 1 3 4 8 20 24 22 23 25 24 22 28 32 32 33 33 32 32 30 27 25 25 25 26 25 23 24 24 23 22 21 19 19 19 18 18 17 16 16 15 15 16
2 2 1 7 7 2 1 2 3 5 4 4 4 3 2 1 2 2 2 1 2 1 1 1 1 2 2 1 3 3 1 3 3 2 1 2 2 1 2 4 6 7 7 5 3 1 4 8 15 25 24 23 24 23 22 27 31 30 32 33 31 30 29 27 26 26 26 26 25 23 23 25 24 23 22 20 20 20 19 18 18 18 17 17 17 18
2 1 2 5 7 3 2 2 2 8 7 5 4 2 1 1 3 2 2 2 2 1 2 3 3 2 1 1 3 4 3 1 3 3 3 4 3 2 3 3 3 6 8 8 7 5 3 7 8 17 24 24 22 21 21 25 29 30 30 31 31 30 30 28 27 27 27 26 26 24 23 24 24 23 22 21 20 20 19 18 18 17 16 17 18 18
1 1 2 4 4 3 4 5 4 9 7 5 5 2 1 3 4 4 2 2 1 1 3 5 3 3 3 3 4 7 6 3 1 3 3 3 3 4 3 4 4 3 7 9 8 8 7 6 8 8 18 25 23 22 22 23 25 29 30 30 29 29 30 30 28 28 28 27 27 26 23 24 25 24 23 22 20 19 18 17 17 17 17 17 16 16
3 1 2 4 4 4 6 4 4 8 5 4 4 3 3 3 3 4 4 3 2 2 3 1 1 4 4 3 5 5 6 6 5 4 4 4 4 4 2 3 3 3 5 7 7 8 9 6 5 7 10 21 24 22 23 23 23 26 29 30 31 29 29 30 28 27 29 28 26 25 24 23 24 24 23 22 21 19 18 17 17 18 17 17 16 16
3 2 3 4 4 5 5 3 3 6 4 2 2 3 2 1 2 4 3 3 2 1 1 2 2 4 3 1 2 1 2 5 5 5 6 6 6 5 0 2 1 3 4 6 7 8 8 6 2 4 6 12 22 23 23 23 23 25 28 29 31 31 30 31 29 27 29 30 27 26 25 23 23 23 23 22 21 20 19 19 19 19 17 16 16 16
0 1 2 3 1 3 3 1 2 1 2 2 3 5 6 5 5 5 4 3 1 1 1 2 4 4 2 2 2 4 2 2 5 4 4 5 6 7 4 1 2 4 4 5 7 7 5 4 4 2 5 5 13 22 25 26 24 23 26 28 30 31 30 31 31 28 30 31 28 26 26 23 23 23 23 24 22 21 21 21 20 19 18 18 16 15
2 1 2 1 2 4 5 5 6 5 2 2 5 7 5 4 5 6 4 2 3 2 1 3 5 3 3 4 6 4 2 2 5 3 2 2 3 5 6 5 5 4 5 5 4 4 5 4 3 3 3 5 4 10 15 25 30 25 23 25 28 31 31 31 28 26 30 33 29 27 26 24 24 24 23 23 22 22 21 18 17 18 18 19 17 14
2 1 3 5 6 7 8 9 11 10 8 7 6 4 2 4 8 8 3 4 5 4 2 4 6 4 4 6 6 4 3 5 4 1 1 2 2 3 5 7 9 8 6 4 2 3 5 4 3 4 4 4 2 5 8 10 21 26 26 27 28 28 30 31 28 25 29 32 29 27 26 23 22 21 21 21 20 20 19 14 13 16 17 17 17 15
2 2 4 5 6 6 7 10 11 10 8 6 2 4 3 2 7 8 6 7 8 5 4 6 8 5 4 6 7 4 3 2 1 3 3 3 5 5 6 8 9 11 10 8 6 6 5 3 3 5 6 6 4 5 3 6 5 6 10 18 26 30 30 30 27 25 29 32 29 27 25 23 21 19 18 19 19 19 19 15 11 12 12 13 14 13
3 2 5 4 4 6 8 10 12 9 7 5 3 6 6 5 6 6 6 7 9 8 7 8 9 5 1 2 3 2 4 3 3 4 4 4 5 5 5 5 4 6 8 9 9 8 5 0 3 6 9 9 7 4 4 2 3 5 5 4 4 14 24 28 28 26 27 28 28 27 25 22 21 19 17 16 16 18 20 17 13 10 8 10 11 10
3 4 7 4 0 4 7 9 9 8 8 10 9 6 6 5 5 5 5 4 4 4 4 5 7 3 1 2 6 6 4 4 4 4 3 2 2 2 2 2 2 3 4 6 6 7 8 6 2 3 6 9 8 5 5 6 5 5 7 4 11 10 2 9 18 25 29 29 28 28 27 26 24 21 17 14 12 15 17 17 16 13 9 8 7 5
3 2 3 2 2 4 5 7 9 8 8 9 6 2 3 3 1 2 1 2 2 2 3 2 2 2 2 3 7 5 3 4 4 3 1 1 1 1 2 2 3 4 4 5 5 4 6 7 5 3 1 5 7 6 7 11 10 9 14 13 8 7 5 3 1 4 13 20 21 15 11 15 19 19 18 16 13 13 14 15 16 16 12 9 7 5
4 1 1 1 1 3 5 8 8 7 6 5 3 3 5 4 4 5 5 5 4 3 3 1 3 4 4 6 6 4 4 3 1 2 2 1 2 1 1 0 1 3 4 5 5 4 4 4 4 4 4 4 8 9 10 14 16 15 15 15 13 14 15 12 6 3 9 3 9 8 5 4 4 8 11 14 14 14 15 15 15 16 15 12 10 9
4 4 2 1 1 3 7 7 7 6 4 4 4 2 4 5 5 4 5 6 5 4 4 3 2 3 5 6 6 5 3 1 2 2 1 2 1 3 3 2 1 2 3 3 3 3 4 3 3 4 6 10 15 15 14 16 17 16 14 14 14 13 14 17 19 13 4 8 5 10 8 6 7 8 9 11 12 12 13 14 15 15 14 12 11 11
2 2 0 1 2 2 5 6 5 2 4 5 5 4 5 6 5 5 6 9 8 8 9 9 8 8 7 6 5 5 5 3 1 1 2 1 1 2 2 2 3 2 3 4 4 3 4 5 4 5 6 10 14 14 15 18 20 20 17 16 17 18 18 18 17 14 11 5 3 9 13 15 16 14 10 10 11 12 12 12 12 12 12 11 11 11
4 2 1 1 2 1 3 2 0 3 4 3 3 2 4 6 5 5 6 9 9 8 9 9 8 8 7 5 4 4 5 4 1 1 1 1 1 2 3 2 3 3 3 4 4 4 6 7 6 7 10 12 12 14 18 19 21 24 22 19 19 18 19 19 13 12 13 14 16 17 16 15 16 15 12 11 13 15 13 11 9 9 11 12 12 12
6 4 2 1 1 2 1 2 3 4 6 4 2 1 3 6 6 5 5 5 7 6 7 8 7 7 6 5 4 3 4 3 0 2 2 1 0 1 3 3 4 4 5 7 7 6 8 10 8 8 10 15 19 18 22 22 22 25 23 19 18 17 17 16 13 15 15 15 19 19 16 15 16 16 14 13 13 12 11 9 7 8 11 12 12 14
6 5 4 3 2 2 2 2 4 4 3 2 1 1 5 8 8 8 6 2 5 6 7 7 6 6 4 4 3 2 2 2 1 1 2 2 1 1 2 3 6 7 9 11 12 11 11 10 10 10 8 14 21 16 23 23 23 27 24 18 18 18 17 13 12 15 16 15 16 13 11 14 16 14 12 10 9 8 6 6 5 6 8 10 10 13
4 6 6 4 2 2 3 0 2 2 2 2 0 3 7 9 8 7 6 1 4 3 6 7 6 5 5 4 3 2 1 1 0 0 0 1 2 3 3 3 5 8 10 11 11 11 11 10 10 10 7 12 17 2 21 24 24 28 24 19 18 19 20 19 16 17 18 15 12 7 5 9 13 12 10 8 6 5 4 4 5 3 3 6 9 11
3 4 4 4 2 2 3 2 2 1 2 3 4 6 7 7 7 7 4 2 5 0 6 6 5 5 4 4 3 1 1 1 1 2 2 2 3 4 4 4 5 7 9 10 9 8 8 9 11 13 13 13 16 12 20 26 27 28 25 21 20 18 19 21 19 18 16 12 9 6 5 8 10 10 9 8 7 6 4 4 4 2 1 4 9 14
3 2 3 4 2 1 2 3 2 1 1 3 6 7 5 5 6 5 3 5 5 2 5 5 5 5 5 5 3 1 2 2 3 4 4 3 3 3 4 7 7 7 7 7 6 6 8 11 13 15 17 16 14 11 15 24 25 24 23 24 22 19 17 17 16 14 11 11 12 12 9 10 11 12 12 10 9 9 9 8 7 6 7 10 15 21
1 2 2 3 0 1 2 3 2 0 2 3 3 7 7 4 3 2 4 5 4 4 5 5 5 5 5 5 4 3 3 3 3 3 3 3 5 5 5 8 7 6 7 8 9 9 11 15 18 18 18 16 14 12 16 23 23 20 21 23 21 19 19 19 19 16 13 14 16 15 14 15 16 17 17 16 16 17 19 18 17 17 19 20 22 25
2 1 0 1 1 1 2 3 2 1 2 1 3 5 5 2 4 4 4 4 3 5 6 4 4 4 5 5 5 5 5 4 3 4 4 3 4 5 5 8 8 6 7 10 12 15 18 19 21 22 20 17 14 12 13 18 22 22 23 23 21 23 25 25 25 24 21 20 19 18 18 20 20 21 21 21 21 22 22 21 21 21 22 23 25 27
2 2 1 1 1 1 1 1 2 4 4 2 3 2 1 3 5 4 4 3 3 4 5 4 4 3 4 6 6 6 6 5 4 4 3 3 4 5 5 7 8 8 9 12 14 19 22 21 20 20 19 16 16 16 15 16 20 23 25 24 25 27 28 28 28 28 26 25 23 23 23 23 22 22 22 22 23 23 23 21 20 21 21 23 26 28
2 3 4 3 2 2 2 3 4 6 5 2 3 5 4 3 3 2 3 4 4 3 3 4 5 3 3 7 7 6 5 5 4 3 3 3 3 5 6 7 8 10 11 14 17 21 23 21 18 17 17 17 17 19 20 21 22 24 25 25 27 28 28 29 29 28 27 26 26 26 27 26 26 25 24 24 25 26 25 24 23 23 23 23 24 24
3 4 4 3 1 1 1 3 4 3 2 2 5 6 4 3 4 5 6 4 5 4 3 5 5 4 5 7 7 6 5 5 4 4 4 3 4 5 7 9 10 12 13 14 17 21 24 23 19 16 15 17 19 21 22 23 24 24 24 25 27 28 28 29 29 28 27 28 27 27 28 28 27 25 24 25 25 24 23 23 22 22 21 22 22 20
3 5 3 2 2 0 1 2 5 5 4 5 7 6 6 6 6 5 4 3 5 6 4 4 5 5 5 5 6 7 6 6 6 5 4 5 5 6 8 10 11 13 15 16 18 21 23 24 22 17 14 15 18 20 22 25 25 25 26 26 27 28 29 29 28 28 28 28 26 25 26 26 24 23 22 22 22 21 19 19 19 19 18 18 19 18
2 5 3 2 3 3 3 3 4 7 7 8 7 6 6 6 5 4 4 4 6 7 5 3 5 6 5 4 6 8 7 6 6 6 5 5 6 7 10 12 13 14 17 20 22 23 23 25 25 21 17 19 21 21 22 25 26 25 26 26 25 26 28 27 26 27 26 25 24 24 25 25 25 24 24 23 23 23 22 22 21 20 18 16 17 17
2 3 3 1 1 1 1 1 3 7 8 7 7 6 5 4 4 3 3 4 6 7 5 5 4 5 6 6 6 7 7 6 6 6 6 6 6 9 12 14 14 15 17 19 22 23 23 23 22 20 18 20 22 21 21 24 25 25 25 25 23 24 25 25 25 26 25 24 23 23 24 25 26 25 25 25 25 25 24 23 22 22 20 18 17 16
2 1 1 1 1 1 1 3 1 4 4 4 6 6 5 5 5 5 4 5 6 6 5 6 5 5 8 8 8 8 8 6 6 7 6 6 9 12 15 15 14 14 15 16 17 19 19 19 20 20 18 18 18 16 15 17 19 20 20 20 19 20 22 23 24 25 24 23 23 22 23 24 25 25 26 26 26 25 25 23 21 20 20 19 17 15
2 2 2 2 3 2 1 2 2 5 4 4 6 7 6 6 6 6 6 5 5 4 3 5 6 6 7 8 9 10 8 7 9 10 7 7 12 16 16 15 14 14 14 14 14 16 18 19 20 19 17 17 19 17 15 15 17 17 17 18 20 22 24 25 26 26 24 24 24 23 23 23 24 25 25 25 25 25 25 24 22 20 19 18 17 16
Wind_Direction
189 201 216 219 233 233 233 227 249 314 152 150 173 187 154 140 143 151 142 173 177 152 174 175 148 165 197 231 208 150 92 294 250 339 297 284 305 247 155 153 160 161 161 175 173 159 145 138 142 146 147 150 154 158 155 151 154 152 146 148 152 154 157 158 152 155 164 163 156 154 150 145 148 154 153 152 152 156 163 163 164 167 165 168 164 150
189 205 235 236 237 241 245 228 341 356 185 158 177 187 137 126 143 150 142 174 190 162 167 164 149 180 190 195 197 145 156 235 205 182 256 262 255 229 156 159 163 159 162 161 161 163 147 141 149 148 149 154 152 153 154 151 152 150 149 151 151 154 160 161 157 162 167 163 161 162 162 157 153 157 162 159 155 159 165 163 166 171 168 171 168 156
192 225 236 238 246 252 267 280 41 356 317 64 1 120 109 122 120 127 153 171 193 174 155 167 149 144 166 193 198 172 181 216 206 189 213 251 249 214 156 170 168 155 164 155 155 170 153 145 151 150 152 155 151 153 155 153 152 151 154 154 152 158 164 161 162 168 169 165 166 165 163 164 162 161 164 160 157 164 166 161 165 171 170 169 167 166
185 233 244 248 282 299 349 20 30 327 315 0 336 60 118 159 146 141 182 178 202 202 157 162 126 81 12 288 231 219 222 240 214 200 210 244 252 221 180 187 175 160 172 166 158 175 160 150 153 153 154 153 154 158 158 157 156 155 159 158 157 161 165 166 168 169 168 165 168 167 163 167 168 163 162 159 158 163 164 161 166 167 166 165 162 163
245 281 270 283 37 41 19 357 350 316 320 318 274 172 159 180 168 144 161 174 196 270 154 146 87 3 256 251 257 234 240 272 226 199 221 237 252 232 184 190 186 168 174 172 165 179 168 154 154 157 156 154 159 164 161 160 160 160 163 161 161 165 168 171 167 165 168 164 165 164 159 166 167 160 163 164 161 165 167 167 172 170 164 162 159 161
234 299 301 115 85 84 73 307 300 290 280 273 243 220 201 180 145 129 145 158 131 27 232 166 110 294 282 246 244 219 206 240 222 202 218 221 237 242 191 190 195 174 174 174 171 177 168 158 156 159 157 156 164 170 165 164 164 167 167 162 164 168 170 171 165 166 168 158 158 159 158 164 162 158 165 169 167 171 171 168 172 171 166 167 169 175
212 325 8 67 45 23 341 264 275 281 283 279 258 262 240 143 133 146 157 160 148 153 244 211 145 244 300 261 230 203 201 221 217 210 216 211 215 229 213 195 188 181 177 172 175 178 168 163 159 159 160 161 168 172 168 168 168 170 170 166 168 170 171 171 165 167 169 162 159 159 162 167 166 165 169 172 172 174 173 170 173 173 173 176 180 182
224 260 272 159 131 69 288 264 222 214 237 269 281 312 329 116 138 161 162 163 157 121 264 238 144 126 272 257 218 185 199 219 217 216 216 211 207 214 222 211 187 182 178 171 180 184 176 172 163 160 163 165 171 174 172 173 170 170 172 172 173 172 171 174 171 169 172 169 164 163 167 169 169 171 175 177 176 176 177 175 177 180 181 182 182 182
220 220 214 176 153 165 225 247 232 209 209 251 282 305 315 63 140 155 134 119 121 100 10 241 149 116 252 270 181 162 194 223 221 217 212 210 206 205 215 221 201 180 177 176 179 183 184 180 168 163 166 168 172 177 177 175 171 169 173 175 176 174 173 177 176 174 176 172 169 173 172 171 175 177 178 179 177 176 177 174 177 183 184 186 188 187
246 217 70 53 110 182 225 250 257 236 221 301 330 328 344 356 317 142 121 104 88 85 244 205 164 153 268 268 142 154 204 225 221 214 208 208 207 202 205 220 214 180 177 176 173 178 181 185 176 166 168 170 172 178 180 176 171 169 172 176 179 176 174 178 178 177 179 175 176 182 178 177 181 178 174 175 175 175 175 174 179 187 188 186 188 192
227 161 76 47 205 270 297 303 299 303 0 4 3 1 5 344 312 296 135 109 77 350 255 198 177 182 257 231 183 181 208 216 210 207 204 200 203 202 200 215 217 186 177 173 167 174 178 187 188 169 169 175 172 176 180 173 168 169 171 176 180 180 177 178 179 179 180 178 181 186 183 183 180 171 170 171 172 175 176 176 180 187 189 187 190 195
223 166 127 176 193 270 310 321 304 312 356 338 343 26 13 336 321 331 45 74 101 240 261 181 163 170 232 233 208 214 214 200 194 196 195 193 198 200 195 211 220 193 174 171 166 173 178 189 193 174 172 177 171 174 180 170 165 169 172 175 179 181 182 181 180 181 181 181 185 186 183 182 175 169 173 173 172 175 176 178 180 182 186 191 194 197
217 183 169 158 140 250 197 218 288 277 228 222 197 146 153 309 317 309 24 126 167 230 247 153 136 159 226 214 226 226 218 194 187 193 189 186 189 194 194 204 217 203 175 171 167 175 182 186 186 177 178 179 171 174 179 168 165 170 173 176 179 181 184 185 184 182 183 184 187 186 181 180 179 178 180 177 175 179 179 181 184 183 189 194 195 198
182 176 170 136 128 234 172 136 247 262 245 232 180 140 156 178 303 278 266 177 136 313 262 152 110 324 243 348 4 40 98 67 64 121 177 184 187 186 189 198 212 215 184 172 168 171 180 180 179 184 188 182 172 174 175 166 165 170 174 178 180 182 185 187 187 186 185 187 189 187 184 182 184 186 187 184 183 187 188 189 193 195 196 198 200 203
33 186 164 130 146 232 228 149 161 329 314 293 98 110 124 136 148 186 289 341 75 260 287 32 67 199 169 248 307 69 87 78 73 74 83 187 206 182 183 197 210 223 196 177 170 168 176 176 177 188 196 188 172 173 174 166 166 170 175 181 182 183 186 187 188 189 187 189 190 190 189 187 189 192 191 190 190 193 196 196 200 205 203 204 208 209
352 352 145 144 169 187 207 168 84 47 358 333 21 67 78 177 151 163 251 318 43 133 235 7 351 242 131 194 297 71 70 55 77 96 108 194 217 177 183 196 203 243 226 189 172 169 175 177 177 185 194 194 176 173 175 168 167 171 175 181 185 186 188 188 189 191 191 191 191 192 193 191 193 197 193 192 192 197 202 201 203 207 207 207 209 209
354 334 242 188 163 150 112 73 59 70 134 326 12 42 328 316 67 81 317 336 19 85 192 191 164 320 92 48 357 60 62 35 55 107 152 191 191 170 184 195 194 258 264 244 194 174 172 176 182 185 189 197 183 172 177 173 170 173 176 181 186 188 190 191 192 193 194 194 193 194 195 195 197 199 197 196 195 199 205 206 208 211 211 210 210 210
348 300 293 296 144 123 105 114 34 42 99 99 25 302 302 14 55 72 41 350 11 74 275 307 101 12 312 297 328 51 67 54 56 76 150 167 167 169 181 197 213 230 247 274 264 193 176 171 180 186 188 199 193 176 177 176 173 175 178 181 185 188 191 193 194 195 196 196 195 195 196 197 198 200 200 201 200 201 206 210 213 217 215 210 211 212
359 351 304 315 107 133 135 140 115 45 69 96 135 231 65 62 29 4 93 22 4 70 303 347 65 60 328 308 337 21 44 84 89 64 93 153 168 177 177 189 213 225 235 272 337 289 209 173 173 181 185 192 196 186 177 175 175 175 178 181 184 189 193 194 194 196 197 198 197 198 199 199 200 200 202 204 206 207 208 211 214 215 214 213 214 211
347 111 285 310 8 152 157 87 114 104 75 85 73 38 95 122 164 346 50 126 64 21 284 338 52 67 268 320 355 325 336 39 73 76 26 353 190 186 181 184 195 209 221 229 52 354 293 199 174 176 184 186 190 193 182 173 175 176 177 181 184 187 191 195 197 197 198 199 199 199 201 201 201 203 204 205 208 210 209 211 214 213 213 216 217 213
2 93 297 316 325 328 62 41 134 152 139 99 68 49 61 80 67 29 16 70 53 343 276 298 308 259 238 355 343 322 356 42 73 105 329 278 258 273 227 191 184 195 210 222 207 174 302 253 188 174 182 187 185 191 185 173 175 177 178 181 183 185 189 193 197 198 199 199 200 201 201 202 204 205 206 207 211 213 211 211 215 214 214 216 217 216
18 12 331 306 315 1 38 335 100 112 109 107 105 111 164 134 83 66 351 3 58 43 294 298 284 274 306 351 323 330 355 84 163 179 217 226 221 247 262 262 229 199 204 213 215 202 236 270 226 177 177 183 185 189 185 175 173 175 178 181 182 184 188 193 197 198 198 198 199 203 202 201 204 206 208 211 215 215 212 214 217 217 216 216 216 215
356 278 307 290 294 348 339 326 77 97 97 109 117 98 90 110 105 114 196 261 87 137 277 293 287 269 296 350 357 349 347 339 273 229 239 236 236 241 239 258 278 234 209 207 210 214 215 255 277 223 182 179 184 191 188 182 178 176 178 181 182 185 188 193 198 199 198 197 199 203 204 201 203 206 209 212 217 217 215 216 218 220 222 220 218 218
332 329 349 307 307 333 319 305 90 90 83 95 91 57 63 97 118 139 155 155 133 200 240 273 298 272 282 0 28 1 335 329 331 325 318 309 285 276 215 197 260 270 231 219 213 213 210 217 287 293 213 184 181 186 189 189 186 180 180 182 185 188 191 193 199 200 197 197 199 202 205 202 200 202 206 211 215 217 217 218 219 223 226 223 222 223
333 341 3 354 344 338 326 314 30 51 63 104 100 96 116 122 102 111 113 101 108 204 138 120 248 256 259 46 97 168 315 329 327 331 333 321 307 306 280 148 249 281 250 229 222 216 210 192 142 343 285 203 184 183 187 191 191 185 184 186 187 191 193 194 199 202 198 197 199 202 205 204 200 200 205 210 214 216 218 220 222 223 224 222 222 223
60 337 0 51 53 305 306 279 290 297 158 185 180 164 173 182 156 133 111 92 118 201 140 157 219 245 276 327 248 204 131 350 290 301 345 331 318 323 337 356 305 295 280 242 221 211 198 169 132 81 327 274 200 188 184 188 194 193 189 188 188 191 193 193 199 203 199 196 198 200 204 204 201 203 208 211 213 216 218 220 220 219 218 217 218 219
98 62 311 238 193 244 259 262 274 269 238 237 208 182 175 177 145 114 97 135 165 171 230 200 193 225 255 250 254 249 128 194 250 270 16 336 316 337 350 345 324 306 293 274 238 209 184 157 130 115 25 347 245 214 200 191 192 196 197 194 191 191 191 192 199 203 197 195 196 198 201 204 203 204 207 211 214 217 221 221 217 216 215 212 213 216
115 157 239 251 240 241 253 268 283 278 261 251 226 183 86 94 121 122 152 191 147 110 286 224 186 196 227 221 235 242 200 211 226 231 318 302 321 350 21 8 337 320 307 299 291 259 225 190 140 107 68 47 174 250 282 226 198 197 198 194 190 190 191 193 197 198 192 191 194 196 199 203 205 206 207 212 218 220 224 227 216 215 217 213 215 219
126 200 225 249 259 269 281 287 291 284 269 266 213 127 94 117 150 168 194 174 147 149 204 199 188 201 215 208 215 212 179 190 17 14 337 354 3 353 29 38 354 333 330 323 309 287 255 202 121 98 82 68 121 183 280 322 284 239 210 193 186 185 188 191 193 192 188 188 192 196 200 202 206 211 213 216 218 215 219 226 219 214 217 216 220 222
115 211 231 245 290 309 305 297 301 311 314 306 259 187 185 189 187 211 217 178 171 185 189 183 182 187 218 176 164 92 78 83 61 32 2 19 27 359 12 44 16 344 339 326 311 306 302 285 96 97 99 86 82 129 160 172 304 325 342 329 222 188 186 190 192 190 187 189 193 197 201 204 207 210 210 209 208 207 210 215 214 206 197 206 219 218
124 215 224 194 199 291 281 277 283 287 279 275 270 238 198 180 183 219 229 200 186 190 185 182 171 156 355 58 87 75 79 101 91 71 31 11 41 3 340 27 12 340 344 340 327 324 320 308 305 102 116 119 113 115 147 163 184 205 203 281 333 336 264 194 193 191 190 192 196 200 201 204 208 210 210 206 202 200 202 206 208 204 187 182 192 184
147 242 240 157 160 249 268 282 284 284 276 270 281 18 79 107 99 294 253 129 109 86 73 76 119 164 201 124 99 94 101 97 92 105 159 216 114 7 335 23 0 333 357 5 345 322 301 296 305 333 85 133 144 152 165 163 162 184 198 206 235 251 251 307 351 200 200 192 186 186 193 197 201 205 207 211 211 204 201 203 205 207 202 186 177 181
169 154 5 52 36 281 288 299 308 337 342 295 277 50 51 51 43 19 23 58 73 68 74 133 202 196 164 127 109 97 82 78 120 188 235 242 138 113 283 139 6 338 9 20 0 337 303 304 319 299 272 232 216 207 190 174 170 178 191 200 208 203 199 199 182 10 345 3 141 132 58 56 169 191 196 205 214 212 208 208 209 211 211 199 189 200
144 114 133 146 63 299 297 324 349 5 346 271 235 115 65 54 56 49 30 35 46 49 56 82 116 96 85 96 110 115 117 183 235 198 206 250 212 212 222 181 124 19 17 19 13 349 307 318 337 288 249 237 233 223 202 182 176 178 182 186 192 188 186 196 195 195 289 356 87 152 164 169 188 198 196 199 208 212 210 210 210 208 208 203 195 198
158 88 194 182 105 291 313 1 17 327 260 232 216 174 126 91 67 57 40 37 51 69 71 72 82 90 91 102 121 136 156 180 206 132 150 179 257 257 235 119 97 65 43 17 2 347 304 303 316 309 270 240 232 222 207 191 180 178 180 182 183 178 180 196 200 189 195 236 228 183 181 186 194 196 195 196 202 208 209 207 206 203 200 196 193 194
186 158 179 152 99 28 341 11 239 269 285 256 227 201 131 102 83 75 54 39 45 75 91 91 98 107 111 122 133 137 145 148 99 33 74 80 30 317 334 44 54 42 52 27 0 346 322 308 297 297 294 279 260 228 208 196 179 171 173 178 181 177 179 189 182 155 169 204 217 209 197 195 200 203 205 206 207 208 205 196 190 191 188 179 170 169
158 146 120 84 115 144 159 266 261 294 319 324 329 354 98 98 98 109 94 36 15 46 90 102 102 101 106 125 140 145 149 147 57 346 340 316 209 321 341 9 28 35 38 21 6 341 312 306 306 310 320 320 301 254 209 187 170 161 159 163 168 168 173 182 168 147 158 193 212 213 209 206 209 211 210 212 216 214 206 195 188 192 193 179 158 154
148 141 130 136 156 118 87 339 305 309 305 287 258 101 98 98 100 104 103 47 344 29 78 100 108 113 128 144 144 164 177 171 224 268 275 294 296 329 347 7 26 37 36 26 15 354 329 319 321 323 336 335 313 255 191 167 149 142 138 141 149 149 147 143 137 141 157 186 202 204 206 210 213 214 210 213 225 229 221 208 202 214 218 201 172 166
137 125 124 137 143 88 88 81 291 291 270 258 164 71 78 88 91 84 83 23 305 22 80 99 115 138 160 162 157 182 196 154 164 319 48 347 0 20 19 22 38 44 41 35 27 8 353 352 350 346 352 344 338 55 141 137 126 121 119 123 130 126 117 109 114 138 157 176 185 167 151 185 199 204 202 196 196 204 208 191 174 180 212 196 177 179
79 92 92 97 98 109 129 203 253 222 261 315 19 47 63 76 74 69 81 237 263 141 107 120 149 164 151 137 143 137 100 118 134 132 130 110 66 46 43 51 52 51 45 35 29 17 7 15 15 11 15 5 359 45 108 119 115 110 108 108 105 100 102 107 115 131 141 152 168 169 156 159 163 162 156 147 145 154 165 173 175 173 120 131 142 146
32 38 86 93 92 132 158 226 245 156 265 317 25 37 32 52 62 74 152 221 236 183 132 140 158 155 131 133 151 116 93 124 144 142 143 136 120 97 84 83 71 65 67 56 48 44 35 42 46 32 23 21 16 35 88 104 103 102 105 105 98 94 102 113 121 128 133 143 156 163 155 138 129 124 121 125 132 128 117 108 102 102 111 113 114 116
6 335 44 81 82 245 201 239 253 60 273 274 41 27 13 43 97 176 203 214 208 147 130 136 142 135 128 135 140 120 106 93 87 112 139 151 145 134 116 109 99 83 78 69 64 68 57 49 52 46 33 34 42 53 83 98 98 98 101 102 105 113 123 130 136 141 144 144 146 143 130 118 116 115 116 120 121 115 109 109 110 113 118 117 111 107
145 125 64 114 170 208 223 257 262 231 271 290 65 29 11 79 181 206 197 199 176 126 124 123 112 119 133 130 118 112 113 115 125 142 148 131 114 109 108 111 108 89 74 65 58 61 63 57 54 51 43 41 53 65 83 96 100 99 96 95 104 118 125 129 132 131 129 127 126 123 118 115 113 112 111 112 113 111 111 113 115 116 116 115 110 105
136 131 163 156 111 149 179 249 214 210 247 297 97 122 176 181 190 185 150 138 116 113 129 124 103 121 146 131 123 126 130 143 159 149 127 97 85 86 90 98 101 93 78 74 71 71 71 67 63 62 57 53 64 74 77 80 86 89 89 92 101 108 112 114 116 115 115 114 112 110 110 109 108 106 106 108 108 109 110 112 113 113 112 111 108 106
190 153 152 156 162 176 189 206 204 206 226 237 115 125 145 160 160 121 100 120 135 148 152 131 129 159 150 126 132 147 146 143 135 107 93 91 89 96 99 98 101 99 86 80 82 82 79 72 65 63 63 62 70 78 80 80 81 81 84 93 102 104 105 107 108 108 108 108 108 107 104 102 100 100 101 104 105 106 107 109 110 110 110 109 107 106
177 153 134 131 160 293 267 198 170 155 170 119 97 99 103 92 74 55 49 86 140 161 159 139 143 156 139 133 144 149 138 130 121 104 104 110 102 104 108 102 94 92 88 83 83 85 84 78 66 56 59 65 68 73 77 80 82 82 88 96 101 103 106 108 108 109 109 108 107 106 102 99 98 98 99 98 98 99 102 105 107 109 110 111 109 109
156 155 143 143 156 68 348 153 134 117 102 89 80 77 74 70 74 71 56 79 133 149 163 154 141 135 136 145 145 135 131 138 138 133 131 129 123 111 98 89 84 85 87 87 88 90 90 86 76 62 54 61 67 72 77 81 83 86 91 94 98 102 105 107 107 108 107 105 102 100 100 100 100 101 102 100 98 99 101 104 108 111 112 113 111 108
157 157 167 204 190 182 210 205 134 107 95 84 78 77 76 71 75 78 63 80 120 141 163 158 131 128 137 143 134 131 138 146 145 144 141 131 125 113 100 93 91 93 94 94 95 95 94 94 93 85 73 71 74 78 85 88 90 92 93 93 95 99 100 100 101 102 101 101 101 99 100 103 104 105 106 106 106 105 102 103 107 109 109 111 112 110
114 143 169 209 245 158 254 325 56 77 80 78 81 87 88 83 81 71 56 81 107 125 146 152 138 135 141 143 137 135 142 146 139 130 122 118 114 108 108 110 110 109 106 104 104 104 101 100 102 103 102 99 94 91 93 95 94 94 97 99 102 103 101 100 99 98 98 99 100 100 102 105 107 108 108 107 105 101 96 95 97 99 100 102 106 108
110 120 150 134 46 25 316 290 30 93 96 88 86 85 76 72 75 65 49 68 94 109 130 146 143 130 136 147 148 139 137 135 122 110 100 102 109 111 115 121 121 120 121 122 121 120 115 111 110 112 115 115 110 109 112 112 107 100 97 102 108 108 106 105 102 99 99 100 100 102 103 103 105 107 108 106 102 98 95 92 91 92 95 97 98 98
153 132 114 131 137 132 223 239 131 102 108 101 85 74 50 38 60 77 68 67 86 96 118 148 146 133 134 145 145 138 132 122 116 113 103 100 110 115 120 124 121 122 127 128 123 120 118 119 120 119 114 107 103 104 108 114 118 114 107 108 110 108 105 104 102 99 100 103 105 107 107 106 106 107 105 104 102 100 99 97 94 93 93 93 93 90
Height
757 773 780 778 777 769 762 757 755 755 757 764 769 774 782 792 798 793 791 788 784 796 804 802 806 806 803 801 796 794 795 796 798 798 797 796 793 793 793 793 794 794 793 792 793 793 795 798 800 803 805 807 810 812 813 814 817 818 819 821 823 824 826 828 828 830 831 832 833 834 835 836 837 838 839 840 841 842 842 843 844 844 845 846 846 847
758 778 779 766 762 755 750 748 747 751 754 759 766 772 780 789 794 789 788 787 782 793 801 797 803 805 800 799 795 793 796 796 796 798 799 796 794 793 793 793 792 791 790 791 792 793 794 797 800 803 805 807 808 810 813 814 816 818 819 821 822 824 826 827 829 830 831 832 833 833 834 835 837 838 839 840 841 842 843 843 844 844 845 845 846 847
772 778 769 753 748 746 746 744 747 755 756 760 763 771 786 790 791 792 787 785 784 792 800 797 801 805 799 797 795 793 794 793 792 793 795 795 794 793 793 793 792 791 791 791 792 792 794 796 799 802 804 806 808 809 812 814 815 817 819 821 822 824 826 827 829 830 831 832 833 834 834 835 837 838 839 840 841 842 843 843 844 844 845 846 846 847
782 772 756 746 743 746 750 747 751 759 759 762 764 775 791 788 790 800 795 789 787 788 795 797 802 807 804 799 797 795 794 790 789 790 790 791 792 791 791 791 791 791 792 792 792 792 793 795 797 801 803 806 808 809 811 813 815 816 818 820 822 824 825 827 828 830 831 832 833 834 835 836 837 838 839 840 841 842 843 843 844 844 845 846 846 847
772 758 742 743 745 749 756 756 757 765 767 764 762 772 785 781 781 790 792 791 790 788 788 795 810 812 805 805 802 795 794 793 790 790 791 790 789 788 788 789 789 789 789 791 792 791 792 793 796 799 802 804 807 809 810 812 814 816 817 819 821 823 825 826 828 829 830 831 832 833 835 836 837 838 839 840 841 842 842 843 843 844 845 845 846 847
761 747 737 746 750 751 760 763 761 765 773 770 761 759 765 771 777 781 787 793 802 805 790 792 818 821 806 806 804 796 797 797 792 792 793 791 789 787 788 788 787 787 786 787 789 789 790 792 795 798 800 803 806 808 809 811 813 815 817 818 821 823 824 826 827 828 830 831 832 833 834 835 835 837 838 839 840 841 842 842 843 844 845 845 846 846
753 743 740 750 755 756 762 765 759 759 773 777 761 749 751 762 773 779 785 793 806 810 791 784 807 821 814 807 800 797 799 798 794 793 792 790 789 788 788 787 787 787 786 786 786 787 789 791 793 796 798 801 805 807 809 811 812 814 816 818 820 822 823 825 826 827 829 830 831 833 833 834 835 836 837 838 839 840 841 842 843 844 844 845 846 846
749 747 749 751 755 762 766 767 758 754 771 774 753 746 751 758 769 775 779 786 790 792 791 785 790 812 820 805 793 795 800 800 796 794 791 788 788 787 786 785 784 785 785 785 786 787 787 789 791 793 797 800 803 806 808 810 811 813 815 817 819 821 822 824 826 827 828 830 831 832 833 834 835 835 836 838 839 839 840 842 843 843 844 845 845 846
744 750 753 751 758 765 764 759 750 749 765 762 745 745 748 751 760 764 770 779 779 786 802 795 787 809 818 798 789 795 802 804 798 793 791 787 785 785 784 783 781 781 782 782 784 785 786 787 789 792 795 798 802 804 807 808 810 811 814 817 818 820 822 823 825 826 827 829 830 832 833 834 835 835 836 837 838 839 840 841 842 843 843 844 845 846
744 744 744 748 759 762 756 749 743 748 758 750 742 746 746 748 754 757 765 773 778 792 805 797 791 808 817 804 798 803 805 802 794 788 787 784 783 782 782 780 779 779 779 780 781 783 785 786 788 790 793 796 800 802 805 807 808 810 813 815 817 819 821 822 824 826 827 828 830 831 832 833 834 835 835 837 837 838 839 840 841 842 843 844 844 845
741 735 735 744 751 750 746 744 741 743 746 744 746 753 756 758 757 761 765 769 788 805 800 790 788 800 814 810 800 799 794 787 785 785 784 781 781 780 780 778 777 777 778 778 779 781 783 785 786 788 791 794 797 800 803 805 806 809 811 814 816 818 820 821 823 825 826 828 829 830 831 832 833 834 835 836 837 838 839 839 840 841 842 843 843 844
742 742 742 740 739 739 743 746 742 738 739 746 755 763 773 775 769 773 777 779 804 816 797 784 783 794 812 806 790 785 777 773 778 781 780 780 780 778 777 777 774 775 776 776 778 780 782 784 785 786 789 791 795 798 800 803 805 808 810 812 815 817 819 820 822 824 825 826 827 828 830 831 832 833 834 835 836 837 838 839 840 840 841 842 843 844
749 747 742 739 737 736 747 757 753 746 746 753 761 770 786 794 794 800 801 799 812 813 794 784 786 796 802 790 778 776 771 768 770 771 772 775 776 776 776 775 773 772 774 775 776 779 780 782 783 784 786 789 791 794 797 800 803 806 809 811 813 815 817 819 820 822 824 825 826 827 829 830 831 832 833 834 835 836 837 838 839 840 840 841 842 843
759 751 740 745 747 737 744 761 767 763 758 760 765 775 793 805 816 821 811 804 811 810 793 783 789 800 796 782 775 772 769 768 766 765 768 769 770 772 772 773 772 770 772 773 773 776 778 780 781 782 784 786 788 791 794 797 800 804 807 809 811 813 815 817 819 820 822 824 825 826 827 829 830 831 832 833 834 836 837 837 838 839 840 840 841 842
774 772 752 750 753 743 743 750 756 758 758 760 758 766 785 797 811 821 814 811 815 813 801 792 797 803 799 787 774 768 768 766 765 764 766 770 770 769 770 771 772 770 770 771 771 773 776 777 779 781 783 784 786 788 791 795 798 801 805 807 809 812 813 815 817 819 820 822 824 825 826 827 829 830 831 832 834 835 836 837 838 838 839 840 841 841
774 775 749 738 739 740 744 740 737 751 765 763 752 764 783 783 789 801 803 801 802 807 808 804 802 794 785 780 769 767 770 767 768 767 766 771 771 769 772 772 772 772 770 770 771 771 773 775 778 780 781 783 784 786 789 792 795 798 802 806 808 810 812 813 815 817 819 820 822 824 825 826 828 829 830 831 833 834 835 836 837 838 838 839 840 841
777 774 746 736 738 735 739 738 735 750 768 765 763 777 778 765 772 793 801 792 792 808 810 800 802 793 784 783 774 770 774 771 772 772 770 772 771 771 774 772 772 773 770 771 771 770 771 773 776 778 780 781 782 784 786 789 792 795 798 803 806 809 811 812 814 816 818 819 821 822 824 825 826 828 829 830 831 833 834 835 836 837 837 838 839 840
773 776 750 739 748 738 728 735 738 739 751 766 777 777 766 762 771 789 808 808 808 820 810 793 802 806 802 800 784 775 780 778 774 773 772 772 772 773 774 772 772 771 770 771 771 770 769 770 774 777 778 780 781 782 785 787 790 793 796 800 804 807 809 811 813 815 816 818 819 821 822 824 825 826 828 829 830 831 832 834 834 835 836 837 838 839
761 779 762 739 748 742 726 739 755 747 741 756 767 761 766 788 795 794 808 818 821 828 817 799 802 809 809 804 791 785 786 781 777 775 774 774 773 774 774 772 772 771 770 771 772 772 770 768 771 774 777 779 780 782 783 785 788 791 794 797 800 804 807 810 812 813 815 817 818 820 821 822 824 825 827 828 829 830 831 832 833 834 835 836 836 837
754 778 777 747 740 744 739 750 770 769 753 752 759 759 766 785 794 794 798 805 816 827 824 813 810 812 807 797 792 790 785 780 779 778 776 776 773 772 771 771 771 770 771 771 771 772 772 770 768 771 776 778 779 781 782 784 787 789 792 796 798 802 805 808 811 812 814 815 817 818 820 821 823 824 826 827 828 829 830 831 832 833 834 835 835 836
754 772 783 763 745 750 759 759 763 768 766 766 772 776 776 777 782 789 795 803 815 825 826 823 821 815 799 789 789 787 782 781 780 778 778 775 772 770 769 768 768 768 768 769 769 770 773 773 769 768 773 776 778 781 782 783 786 788 791 794 796 799 803 806 808 810 812 814 815 817 818 820 822 823 825 826 827 828 828 830 831 831 833 833 834 834
764 772 782 777 764 764 765 752 746 753 759 767 774 778 780 781 787 801 812 816 818 824 825 823 824 814 794 785 785 782 780 779 777 777 776 774 773 771 769 767 767 766 765 765 766 768 771 772 771 769 770 774 777 779 781 783 785 787 790 792 794 797 800 803 806 808 810 812 814 816 817 818 820 822 824 825 826 826 827 828 829 830 831 831 832 833
761 768 778 780 770 766 758 744 742 747 748 757 767 770 773 780 791 808 820 818 816 820 819 816 821 813 791 783 785 784 782 779 777 777 776 774 773 771 770 768 767 765 764 763 763 765 768 770 772 771 769 771 774 777 780 782 783 785 788 790 793 795 797 800 803 805 808 810 812 814 815 817 818 820 822 823 824 825 826 827 828 829 829 830 831 831
759 769 780 781 769 759 751 742 742 744 748 762 768 765 770 777 781 791 800 803 809 815 814 819 828 814 790 783 785 787 786 782 779 779 778 778 774 771 771 769 767 766 765 763 763 763 765 768 770 771 770 770 772 775 778 780 781 784 786 788 791 793 795 798 801 803 805 808 810 812 814 815 816 818 820 821 822 823 824 826 826 827 828 828 829 830
768 776 782 791 792 784 774 767 763 759 761 769 771 767 769 771 774 782 789 796 807 810 808 820 830 811 789 784 783 782 785 784 781 779 778 779 777 774 772 769 768 767 765 765 765 763 765 767 768 770 771 770 771 773 775 778 780 781 783 786 788 791 794 796 799 801 803 805 808 810 812 813 814 816 817 819 820 821 823 824 824 825 826 827 828 828
769 777 781 796 812 813 806 796 785 775 769 768 768 768 767 768 773 782 792 805 814 809 804 813 818 804 790 787 783 778 780 782 781 778 777 777 777 776 773 771 770 768 766 766 765 764 764 765 767 769 770 771 771 771 773 775 778 780 782 784 787 789 792 794 797 798 800 803 805 807 809 811 812 813 815 816 818 819 820 821 822 823 824 825 826 827
767 775 776 785 796 799 797 786 771 765 769 771 769 767 766 767 770 778 794 807 808 806 806 804 801 799 795 790 784 779 779 781 780 777 776 775 774 773 773 775 774 770 768 765 764 764 764 763 766 767 768 770 770 772 773 773 775 778 780 783 785 788 790 793 795 796 798 801 803 805 807 808 809 811 812 814 815 817 818 819 820 821 822 823 824 825
769 778 775 776 779 776 774 770 760 760 766 767 766 765 764 766 771 779 791 793 791 804 812 799 792 799 796 787 783 781 780 780 779 778 778 776 774 772 772 776 780 776 771 767 765 765 764 764 764 765 768 768 769 773 776 775 775 776 779 781 783 786 789 791 793 795 796 798 801 803 804 806 807 808 810 812 814 815 816 817 819 819 820 821 822 823
769 779 772 770 773 768 765 763 759 759 759 759 761 763 762 765 772 778 782 780 783 797 801 791 790 795 788 780 780 779 778 779 781 781 780 779 777 775 772 775 780 781 779 775 771 767 765 765 764 764 767 768 769 772 775 777 779 779 780 781 782 784 787 789 791 793 794 796 798 801 802 804 806 808 809 810 812 813 815 816 817 818 819 820 821 822
765 775 769 768 773 770 765 764 759 757 758 758 758 758 758 762 766 769 771 772 775 781 780 779 785 786 781 778 778 778 779 780 781 782 781 780 779 777 774 772 774 778 781 782 778 772 769 767 765 765 767 768 769 771 772 775 779 781 783 785 786 786 787 788 790 791 792 794 796 798 801 803 805 806 808 809 810 812 813 815 816 817 818 818 820 820
762 772 765 763 775 776 767 763 759 758 760 760 757 755 756 759 762 764 764 764 768 774 773 773 780 783 779 777 778 780 781 780 781 782 782 780 779 778 775 772 771 775 777 779 779 776 774 771 768 766 765 767 769 770 771 773 776 779 782 786 789 790 789 788 789 789 791 792 795 797 799 801 803 805 806 808 809 811 812 813 814 816 817 818 819 819
763 769 762 764 782 783 769 764 764 759 758 761 761 760 759 761 765 765 762 762 767 773 774 777 784 786 780 777 779 781 780 780 783 782 780 779 779 779 777 774 774 775 774 775 776 775 775 774 772 770 767 767 768 769 770 771 774 778 780 783 787 789 789 790 789 791 792 792 793 797 799 801 802 804 805 806 808 810 811 812 813 815 816 817 817 818
761 767 768 773 787 785 769 765 765 765 774 778 769 762 760 761 763 764 763 762 763 767 775 780 782 779 775 775 780 783 783 783 783 780 779 779 779 778 776 773 774 774 772 773 774 773 774 773 773 772 770 768 768 768 769 769 772 775 778 780 783 784 786 788 790 793 796 795 793 795 800 803 805 805 805 806 808 809 810 811 812 814 815 816 816 817
757 765 769 772 783 787 774 765 770 784 797 787 763 752 754 757 762 765 766 765 763 764 769 773 774 774 775 778 781 785 785 782 780 779 778 778 779 778 774 769 770 771 771 771 772 772 772 771 771 771 769 768 768 768 768 768 770 773 775 778 781 783 784 786 787 790 795 798 797 796 798 802 804 805 806 806 808 809 810 811 812 813 814 815 814 815
756 763 767 767 776 783 775 775 795 806 793 768 750 745 746 749 754 760 764 765 766 768 770 773 778 779 780 781 781 782 782 779 777 777 776 776 777 777 773 769 768 769 769 770 770 770 770 769 769 769 769 769 769 769 768 767 767 769 772 774 778 780 781 783 785 787 790 796 800 799 796 796 798 801 804 806 807 809 810 811 811 812 813 813 813 813
752 761 766 767 774 782 782 792 807 798 769 752 751 748 745 749 754 762 774 776 770 770 775 779 782 781 779 781 780 779 780 778 776 777 775 775 776 776 775 772 770 769 769 769 769 769 769 768 767 767 767 768 769 768 766 764 763 764 767 771 773 775 777 780 785 787 788 792 796 796 794 794 795 798 802 805 806 807 809 810 811 811 811 811 811 812
745 756 765 770 775 781 790 795 791 780 770 765 760 752 749 755 757 764 782 787 774 769 774 778 782 782 779 780 780 778 779 780 781 780 776 775 776 776 775 773 771 771 770 769 769 769 769 768 766 766 766 765 765 764 762 761 761 761 764 768 769 772 775 779 783 787 789 790 792 792 792 793 794 796 800 804 805 807 808 809 810 810 810 810 810 811
739 748 760 772 775 776 788 797 794 793 791 777 763 752 746 750 752 754 775 790 778 769 773 776 780 782 780 779 780 779 779 784 787 784 777 775 775 774 773 773 772 771 770 769 770 770 770 769 767 766 765 764 762 759 758 759 759 759 763 767 768 771 775 777 782 786 786 787 789 790 791 792 794 797 800 803 805 807 808 808 809 809 809 810 810 809
740 746 754 768 775 775 787 801 803 801 792 772 759 751 744 748 749 751 777 798 784 770 772 775 777 779 778 778 779 779 782 788 790 785 778 776 775 773 773 773 772 772 772 771 771 772 771 770 767 765 765 764 760 755 755 758 758 758 763 767 770 773 774 776 779 783 784 786 788 791 793 794 796 798 800 802 804 806 807 807 808 808 809 810 810 810
750 754 759 771 779 779 786 796 794 788 779 766 758 754 749 747 748 765 797 805 782 769 772 773 774 776 775 777 779 780 784 789 788 783 777 774 774 774 773 774 773 773 772 772 772 773 772 770 767 765 765 765 763 759 757 758 757 759 764 768 772 775 776 777 779 781 783 785 787 791 794 798 799 799 800 802 803 804 806 806 807 808 809 811 811 809
759 760 764 773 780 780 787 794 788 779 772 764 759 756 750 749 762 787 804 792 771 769 770 768 772 775 774 777 780 780 782 782 779 777 774 772 773 773 772 774 774 773 773 772 772 772 772 771 768 766 767 767 767 767 764 759 759 763 766 768 772 776 779 780 780 781 784 786 788 792 797 800 800 798 798 800 801 802 804 804 806 807 808 811 813 810
767 768 769 772 778 779 782 787 788 783 772 761 758 754 751 764 785 793 783 770 766 769 768 767 771 772 772 775 776 777 779 777 775 775 774 773 772 772 771 773 773 774 774 773 772 772 772 772 770 770 771 771 771 773 771 766 765 768 768 769 772 776 780 781 782 783 786 789 792 796 800 802 800 797 797 799 800 801 803 804 806 807 807 811 814 812
764 772 776 774 774 778 782 787 796 795 774 756 759 763 762 773 783 775 765 765 766 765 765 768 769 769 771 774 775 776 778 777 776 776 775 774 774 773 774 774 774 776 776 775 776 774 773 773 773 774 777 777 776 777 776 773 771 771 771 773 775 778 780 782 784 786 788 791 795 798 800 801 800 798 798 800 800 802 804 805 807 808 809 812 813 813
759 768 776 774 772 780 790 791 790 784 766 753 760 769 767 765 764 760 762 767 766 764 766 767 768 768 770 772 775 777 777 776 777 776 777 778 777 777 778 778 777 778 777 776 777 775 774 776 777 778 781 783 782 781 781 780 778 775 775 776 778 780 782 784 786 788 790 794 797 800 801 801 801 801 802 803 803 804 806 808 809 810 812 813 814 815
758 758 764 768 768 771 777 775 767 763 758 753 756 760 760 758 757 756 760 764 766 766 764 764 768 769 768 770 774 776 776 777 777 778 779 781 780 779 780 780 780 780 779 778 778 776 775 778 782 784 786 786 786 785 784 783 782 780 780 782 783 784 786 787 789 792 794 797 800 801 802 803 803 805 805 806 807 808 809 811 812 813 814 815 816 818
751 750 755 762 763 761 761 759 756 758 758 754 753 755 755 756 756 756 759 762 765 764 762 763 767 767 767 769 772 774 776 777 778 779 780 781 782 782 782 782 782 782 781 781 780 778 777 779 785 789 790 790 789 788 786 786 785 784 785 787 788 789 790 791 794 796 798 800 802 803 804 805 806 808 809 810 812 812 813 814 814 816 817 817 818 821
748 748 753 759 763 767 767 759 754 756 757 755 756 757 756 757 757 757 759 761 762 762 762 762 765 766 767 769 770 773 776 777 778 779 780 780 783 783 783 785 785 784 784 783 781 780 780 780 785 791 794 794 793 792 791 790 790 789 790 791 792 794 795 796 798 800 801 802 804 805 805 806 807 810 812 813 814 815 816 816 816 817 818 819 820 822
748 748 754 758 760 764 765 757 751 754 755 754 757 759 759 760 759 757 758 759 760 761 762 762 764 767 768 769 770 773 775 776 777 779 779 780 782 783 784 787 788 788 787 786 784 784 784 783 786 792 797 797 797 797 796 795 795 795 794 795 797 798 799 800 802 802 803 805 806 806 807 808 810 812 814 815 816 817 818 818 818 818 819 821 822 823
748 751 755 757 758 760 759 756 755 759 760 758 758 759 759 759 759 759 758 758 759 761 762 763 765 766 767 769 771 772 775 778 778 778 780 781 782 783 786 788 790 790 790 789 788 787 787 788 790 793 797 799 800 801 801 800 800 799 798 799 801 801 802 803 804 804 806 807 808 809 810 812 813 814 816 817 817 818 818 819 819 820 821 823 824 825
751 756 756 757 764 768 766 760 758 763 767 764 760 759 759 758 758 760 760 761 762 763 764 765 766 766 767 769 770 772 776 778 778 780 782 782 783 785 787 789 791 792 791 791 792 790 790 791 793 795 798 799 800 803 805 805 805 804 803 804 805 804 804 804 805 806 808 809 811 813 814 814 816 817 817 818 818 819 819 820 821 822 823 824 826 827
750 754 755 759 767 769 763 757 756 760 765 764 760 760 760 758 759 762 763 764 765 764 763 765 766 767 768 770 770 772 775 777 779 781 783 784 786 787 789 790 792 792 793 793 793 792 792 793 795 797 798 799 801 804 806 807 806 807 807 807 807 807 806 806 807 808 810 811 813 815 816 817 818 819 819 820 820 820 821 822 823 824 825 826 827 828